When you browse on this site, cookies collect data to enhance your experience and personalize the content and advertising you see.
Visit our Privacy Policy to learn more. By continuing to use the site, you agree to this use of cookies and data.
  • In Hungary
  • List of Countries
  • For 7 days
  • Water Temperature
  • Satellite Maps
  • Weather Map
  • News
  • Weather Widgets
  • user-avatar
    Login

    Hourly Weather Shchebetovka

    Today, 21 July, Sunday

    Time Temperature Precipitation Wind Pressure Humidity
    00:00 +20°C° 0 mm 3 mps 745 mmHg 52%
    01:00 +20°C° 0 mm 3 mps 745 mmHg 52%
    02:00 +20°C° 0 mm 3 mps 744 mmHg 53%
    03:00 +20°C° 0 mm 4 mps 744 mmHg 54%
    04:00 +20°C° 0 mm 4 mps 744 mmHg 55%
    05:00 +20°C° 0 mm 4 mps 744 mmHg 56%
    06:00 +22°C° 0 mm 4 mps 744 mmHg 53%
    07:00 +25°C° 0 mm 4 mps 744 mmHg 49%
    08:00 +27°C° 0 mm 5 mps 744 mmHg 45%
    09:00 +28°C° 0 mm 5 mps 744 mmHg 42%
    10:00 +29°C° 0 mm 5 mps 744 mmHg 39%
    11:00 +30°C° 0 mm 6 mps 744 mmHg 36%
    12:00 +30°C° 0 mm 6 mps 744 mmHg 36%
    13:00 +30°C° 0 mm 6 mps 744 mmHg 36%
    14:00 +30°C° 0 mm 6 mps 744 mmHg 36%
    15:00 +30°C° 0 mm 5 mps 744 mmHg 37%
    16:00 +29°C° 0 mm 5 mps 744 mmHg 37%
    17:00 +29°C° 0 mm 5 mps 744 mmHg 37%
    18:00 +27°C° 0 mm 4 mps 744 mmHg 44%
    19:00 +25°C° 0 mm 4 mps 744 mmHg 52%
    20:00 +22°C° 0 mm 3 mps 744 mmHg 59%
    21:00 +22°C° 0 mm 3 mps 744 mmHg 63%
    22:00 +21°C° 0 mm 3 mps 744 mmHg 67%
    23:00 +21°C° 0 mm 3 mps 745 mmHg 71%

    Tomorrow, 22 July, Monday

    Time Temperature Precipitation Wind Pressure Humidity
    00:00 +20°C° 0 mm 3 mps 745 mmHg 75%
    01:00 +20°C° 0 mm 2 mps 745 mmHg 78%
    02:00 +19°C° 0 mm 2 mps 745 mmHg 82%
    03:00 +20°C° 0 mm 2 mps 745 mmHg 81%
    04:00 +20°C° 0 mm 2 mps 745 mmHg 81%
    05:00 +20°C° 0 mm 2 mps 745 mmHg 80%
    06:00 +23°C° 0 mm 2 mps 745 mmHg 72%
    07:00 +25°C° 0 mm 2 mps 745 mmHg 63%
    08:00 +26°C° 0 mm 2 mps 745 mmHg 55%
    09:00 +28°C° 0 mm 2 mps 745 mmHg 49%
    10:00 +29°C° 0 mm 2 mps 745 mmHg 44%
    11:00 +30°C° 0 mm 2 mps 745 mmHg 38%
    12:00 +30°C° 0 mm 2 mps 745 mmHg 37%
    13:00 +31°C° 0 mm 2 mps 744 mmHg 36%
    14:00 +31°C° 0 mm 2 mps 744 mmHg 35%
    15:00 +30°C° 0 mm 2 mps 744 mmHg 36%
    16:00 +30°C° 0 mm 2 mps 744 mmHg 38%
    17:00 +29°C° 0 mm 2 mps 744 mmHg 39%
    18:00 +27°C° 0 mm 2 mps 743 mmHg 45%
    19:00 +26°C° 0 mm 2 mps 743 mmHg 51%
    20:00 +24°C° 0 mm 1 mps 743 mmHg 58%
    21:00 +24°C° 0 mm 1 mps 743 mmHg 57%
    22:00 +23°C° 0 mm 1 mps 743 mmHg 56%
    23:00 +23°C° 0 mm 2 mps 743 mmHg 55%

    Day after tomorrow, 23 July, Tuesday

    Time Temperature Precipitation Wind Pressure Humidity
    00:00 +23°C° 0 mm 2 mps 743 mmHg 56%
    01:00 +23°C° 0 mm 2 mps 742 mmHg 57%
    02:00 +21°C° 0 mm 2 mps 742 mmHg 57%
    03:00 +21°C° 0 mm 2 mps 742 mmHg 60%
    04:00 +21°C° 0 mm 3 mps 742 mmHg 62%
    05:00 +21°C° 0 mm 3 mps 741 mmHg 64%
    06:00 +24°C° 0 mm 2 mps 741 mmHg 57%
    07:00 +26°C° 0 mm 2 mps 741 mmHg 50%
    08:00 +29°C° 0 mm 1 mps 741 mmHg 43%
    09:00 +29°C° 0 mm 2 mps 741 mmHg 41%
    10:00 +30°C° 0 mm 2 mps 741 mmHg 38%
    11:00 +31°C° 0 mm 2 mps 741 mmHg 36%
    12:00 +30°C° 0 mm 3 mps 741 mmHg 41%
    13:00 +29°C° 0 mm 4 mps 741 mmHg 46%
    14:00 +28°C° 0 mm 5 mps 741 mmHg 50%
    15:00 +26°C° 0 mm 5 mps 740 mmHg 59%
    16:00 +25°C° 0 mm 5 mps 740 mmHg 68%
    17:00 +22°C° 0 mm 6 mps 740 mmHg 77%
    18:00 +21°C° 0 mm 6 mps 740 mmHg 79%
    19:00 +21°C° 0 mm 5 mps 740 mmHg 81%
    20:00 +20°C° 0 mm 5 mps 740 mmHg 83%
    21:00 +19°C° 0 mm 5 mps 740 mmHg 85%
    22:00 +19°C° 0 mm 5 mps 740 mmHg 87%
    23:00 +17°C° 0 mm 5 mps 740 mmHg 89%

    24 July, Wednesday

    Time Temperature Precipitation Wind Pressure Humidity
    00:00 +17°C° 0 mm 5 mps 740 mmHg 88%
    01:00 +17°C° 0 mm 5 mps 740 mmHg 87%
    02:00 +17°C° 0 mm 5 mps 739 mmHg 86%
    03:00 +17°C° 0 mm 5 mps 739 mmHg 85%
    04:00 +17°C° 0 mm 5 mps 739 mmHg 85%
    05:00 +17°C° 0 mm 4 mps 740 mmHg 85%
    06:00 +19°C° 0 mm 4 mps 740 mmHg 77%
    07:00 +21°C° 0 mm 4 mps 740 mmHg 69%
    08:00 +22°C° 0 mm 4 mps 740 mmHg 60%
    09:00 +25°C° 0 mm 4 mps 740 mmHg 53%
    10:00 +26°C° 0 mm 4 mps 740 mmHg 46%
    11:00 +28°C° 0 mm 3 mps 740 mmHg 39%
    12:00 +27°C° 0.1 mm 3 mps 740 mmHg 42%
    13:00 +27°C° 0.1 mm 4 mps 740 mmHg 44%
    14:00 +26°C° 0.1 mm 4 mps 740 mmHg 46%
    15:00 +26°C° 0.5 mm 4 mps 740 mmHg 49%
    16:00 +26°C° 0.5 mm 4 mps 740 mmHg 53%
    17:00 +25°C° 0.5 mm 4 mps 740 mmHg 56%
    18:00 +23°C° 0.2 mm 4 mps 740 mmHg 60%
    19:00 +22°C° 0.2 mm 4 mps 740 mmHg 65%
    20:00 +20°C° 0.2 mm 3 mps 740 mmHg 69%
    21:00 +20°C° 0 mm 4 mps 740 mmHg 71%
    22:00 +19°C° 0 mm 4 mps 740 mmHg 73%
    23:00 +17°C° 0 mm 5 mps 740 mmHg 75%

    25 July, Thursday

    Time Temperature Precipitation Wind Pressure Humidity
    00:00 +18°C° 0 mm 4 mps 740 mmHg 76%
    01:00 +18°C° 0 mm 4 mps 740 mmHg 76%
    02:00 +18°C° 0 mm 4 mps 739 mmHg 76%
    03:00 +18°C° 0 mm 4 mps 739 mmHg 76%
    04:00 +18°C° 0 mm 3 mps 739 mmHg 75%
    05:00 +19°C° 0 mm 2 mps 739 mmHg 74%
    06:00 +20°C° 0.1 mm 2 mps 739 mmHg 67%
    07:00 +23°C° 0.1 mm 2 mps 739 mmHg 60%
    08:00 +24°C° 0.1 mm 2 mps 739 mmHg 52%
    09:00 +25°C° 0.3 mm 2 mps 739 mmHg 54%
    10:00 +25°C° 0.3 mm 3 mps 739 mmHg 57%
    11:00 +25°C° 0.3 mm 3 mps 739 mmHg 59%
    12:00 +25°C° 0.7 mm 3 mps 739 mmHg 60%
    13:00 +25°C° 0.7 mm 3 mps 739 mmHg 61%
    14:00 +25°C° 0.7 mm 3 mps 739 mmHg 63%
    15:00 +25°C° 0.3 mm 2 mps 739 mmHg 62%
    16:00 +26°C° 0.3 mm 2 mps 739 mmHg 62%
    17:00 +26°C° 0.3 mm 2 mps 739 mmHg 61%
    18:00 +24°C° 0 mm 2 mps 739 mmHg 68%
    19:00 +23°C° 0 mm 2 mps 739 mmHg 75%
    20:00 +20°C° 0 mm 2 mps 739 mmHg 82%
    21:00 +20°C° 0 mm 2 mps 739 mmHg 81%
    22:00 +20°C° 0 mm 2 mps 739 mmHg 81%
    23:00 +19°C° 0 mm 2 mps 739 mmHg 81%

    26 July, Friday

    Time Temperature Precipitation Wind Pressure Humidity
    00:00 +19°C° 0 mm 3 mps 739 mmHg 84%
    01:00 +19°C° 0 mm 3 mps 739 mmHg 88%
    02:00 +18°C° 0 mm 4 mps 739 mmHg 91%
    03:00 +18°C° 0 mm 4 mps 739 mmHg 92%
    04:00 +18°C° 0 mm 4 mps 739 mmHg 92%
    05:00 +18°C° 0 mm 4 mps 740 mmHg 93%
    06:00 +20°C° 0 mm 4 mps 740 mmHg 86%
    07:00 +21°C° 0 mm 4 mps 740 mmHg 79%
    08:00 +23°C° 0 mm 4 mps 740 mmHg 71%
    09:00 +25°C° 0 mm 4 mps 740 mmHg 64%
    10:00 +27°C° 0 mm 4 mps 740 mmHg 58%
    11:00 +28°C° 0 mm 4 mps 741 mmHg 51%
    12:00 +28°C° 0 mm 4 mps 740 mmHg 51%
    13:00 +28°C° 0 mm 4 mps 740 mmHg 51%
    14:00 +28°C° 0 mm 4 mps 740 mmHg 51%
    15:00 +28°C° 0 mm 3 mps 740 mmHg 50%
    16:00 +28°C° 0 mm 3 mps 740 mmHg 50%
    17:00 +28°C° 0 mm 3 mps 740 mmHg 49%
    18:00 +26°C° 0 mm 2 mps 740 mmHg 57%
    19:00 +24°C° 0 mm 2 mps 740 mmHg 65%
    20:00 +23°C° 0 mm 2 mps 740 mmHg 73%
    21:00 +23°C° 0 mm 2 mps 740 mmHg 71%
    22:00 +21°C° 0 mm 2 mps 739 mmHg 70%
    23:00 +21°C° 0 mm 3 mps 739 mmHg 68%
    Show more